| time (UTC) | temp F | wind direction | speed MPH | gust MPH | rain 1hr in | rain 24hr in | rain mn in | humidity % | barometer mb |
| 20260506092720 | 49 | 311 | 9.0 | 17.0 | 0.00 | 0.00 | 0.00 | 31 | 1013.3 |
| 20260506090720 | 51 | 272 | 9.0 | 16.0 | 0.00 | 0.00 | 0.00 | 32 | 1013.1 |
| 20260506084721 | 50 | 267 | 10.0 | 18.0 | 0.00 | 0.00 | 0.00 | 31 | 1013.0 |
| 20260506082721 | 49 | 255 | 7.0 | 13.0 | 0.00 | 0.00 | 0.00 | 33 | 1013.1 |
| 20260506080720 | 48 | 276 | 8.0 | 16.0 | 0.00 | 0.00 | 0.00 | 36 | 1013.0 |
| 20260506072721 | 47 | 286 | 11.0 | 17.0 | 0.00 | 0.00 | 0.00 | 44 | 1012.7 |
| 20260506070720 | 47 | 313 | 10.0 | 18.0 | 0.00 | 0.00 | 0.00 | 46 | 1012.6 |
| 20260506060720 | 44 | 290 | 10.0 | 14.0 | 0.00 | 0.00 | 0.00 | 58 | 1012.3 |
| 20260506050720 | 40 | 273 | 9.0 | 13.0 | 0.00 | 0.00 | 0.00 | 68 | 1011.7 |
| 20260506044720 | 40 | 282 | 10.0 | 15.0 | 0.00 | 0.00 | 0.00 | 71 | 1011.5 |
| 20260506042720 | 39 | 279 | 8.0 | 13.0 | 0.00 | 0.00 | 0.00 | 73 | 1011.4 |
| 20260506040719 | 38 | 279 | 8.0 | 13.0 | 0.00 | 0.00 | 0.00 | 76 | 1011.3 |
| 20260506034720 | 37 | 275 | 8.0 | 12.0 | 0.00 | 0.00 | 0.00 | 78 | 1011.1 |
| 20260506032719 | 36 | 269 | 9.0 | 12.0 | 0.00 | 0.00 | 0.00 | 79 | 1010.9 |
| 20260506030720 | 35 | 266 | 7.0 | 10.0 | 0.00 | 0.00 | 0.00 | 80 | 1010.7 |
| 20260506024719 | 34 | 266 | 7.0 | 10.0 | 0.00 | 0.00 | 0.00 | 82 | 1010.5 |
| 20260506022719 | 34 | 266 | 7.0 | 10.0 | 0.00 | 0.00 | 0.00 | 82 | 1010.3 |
| 20260506020719 | 34 | 271 | 6.0 | 9.0 | 0.00 | 0.00 | 0.00 | 82 | 1010.1 |
| 20260506014719 | 35 | 285 | 9.0 | 11.0 | 0.00 | 0.00 | 0.00 | 79 | 1010.0 |
| 20260506012719 | 35 | 277 | 7.0 | 11.0 | 0.00 | 0.00 | 0.00 | 79 | 1009.9 |
| 20260506010719 | 35 | 276 | 8.0 | 11.0 | 0.00 | 0.00 | 0.00 | 79 | 1009.8 |
| 20260506004719 | 35 | 273 | 7.0 | 11.0 | 0.00 | 0.00 | 0.00 | 79 | 1009.5 |
| 20260506002719 | 35 | 271 | 8.0 | 11.0 | 0.00 | 0.00 | 0.00 | 79 | 1009.4 |
| 20260506000719 | 36 | 268 | 7.0 | 10.0 | 0.00 | 0.00 | 0.00 | 78 | 1009.4 |
| 20260505234719 | 36 | 267 | 7.0 | 10.0 | 0.00 | 0.00 | 0.00 | 77 | 1009.2 |
| 20260505232719 | 37 | 263 | 8.0 | 11.0 | 0.00 | 0.00 | 0.00 | 76 | 1009.1 |
| 20260505230719 | 37 | 267 | 8.0 | 11.0 | 0.00 | 0.00 | 0.00 | 74 | 1009.0 |
| 20260505224719 | 38 | 270 | 8.0 | 11.0 | 0.00 | 0.00 | 0.00 | 72 | 1008.8 |
| 20260505222718 | 39 | 280 | 8.0 | 12.0 | 0.00 | 0.00 | 0.00 | 70 | 1008.7 |
| 20260505220719 | 39 | 273 | 8.0 | 11.0 | 0.00 | 0.00 | 0.00 | 69 | 1008.6 |
| 20260505214719 | 40 | 265 | 8.0 | 12.0 | 0.00 | 0.00 | 0.00 | 66 | 1008.5 |
| 20260505212718 | 40 | 264 | 8.0 | 11.0 | 0.00 | 0.00 | 0.00 | 63 | 1008.3 |
| 20260505210718 | 40 | 258 | 8.0 | 13.0 | 0.00 | 0.00 | 0.00 | 62 | 1008.1 |
| 20260505204718 | 41 | 264 | 8.0 | 14.0 | 0.00 | 0.00 | 0.00 | 60 | 1007.9 |
| 20260505202719 | 41 | 268 | 9.0 | 13.0 | 0.00 | 0.00 | 0.00 | 58 | 1007.6 |
| 20260505200718 | 42 | 274 | 10.0 | 14.0 | 0.00 | 0.00 | 0.00 | 55 | 1007.4 |
| 20260505194718 | 43 | 269 | 11.0 | 16.0 | 0.00 | 0.00 | 0.00 | 52 | 1007.3 |
| 20260505192718 | 44 | 260 | 10.0 | 16.0 | 0.00 | 0.00 | 0.00 | 48 | 1007.2 |
| 20260505190718 | 44 | 257 | 8.0 | 12.0 | 0.00 | 0.00 | 0.00 | 44 | 1007.0 |
| 20260505184718 | 45 | 262 | 9.0 | 16.0 | 0.00 | 0.00 | 0.00 | 42 | 1006.8 |
| 20260505182718 | 46 | 263 | 11.0 | 17.0 | 0.00 | 0.00 | 0.00 | 40 | 1006.5 |
| 20260505180717 | 47 | 259 | 11.0 | 19.0 | 0.00 | 0.00 | 0.00 | 39 | 1006.3 |
| 20260505174718 | 47 | 260 | 13.0 | 21.0 | 0.00 | 0.00 | 0.00 | 39 | 1006.1 |
| 20260505172717 | 48 | 272 | 14.0 | 22.0 | 0.00 | 0.00 | 0.00 | 37 | 1006.0 |
| 20260505170717 | 48 | 264 | 15.0 | 24.0 | 0.00 | 0.00 | 0.00 | 36 | 1005.9 |
| 20260505164717 | 49 | 270 | 15.0 | 23.0 | 0.00 | 0.00 | 0.00 | 36 | 1005.8 |
| 20260505162717 | 50 | 266 | 15.0 | 21.0 | 0.00 | 0.00 | 0.00 | 34 | 1005.7 |
| 20260505160717 | 50 | 255 | 17.0 | 25.0 | 0.00 | 0.00 | 0.00 | 30 | 1005.5 |
| 20260505152717 | 51 | 262 | 15.0 | 25.0 | 0.00 | 0.00 | 0.00 | 33 | 1005.2 |
| 20260505150717 | 52 | 267 | 14.0 | 22.0 | 0.00 | 0.00 | 0.00 | 31 | 1005.1 |
| 20260505124716 | 52 | 292 | 15.0 | 22.0 | 0.00 | 0.00 | 0.00 | 40 | 1004.6 |
| 20260505122716 | 51 | 297 | 15.0 | 20.0 | 0.00 | 0.00 | 0.00 | 45 | 1004.4 |
| 20260505120716 | 54 | 278 | 14.0 | 22.0 | 0.00 | 0.00 | 0.00 | 37 | 1004.0 |
| 20260505114716 | 53 | 283 | 17.0 | 24.0 | 0.00 | 0.02 | 0.00 | 43 | 1003.9 |
| 20260505112716 | 54 | 259 | 17.0 | 30.0 | 0.00 | 0.02 | 0.00 | 37 | 1003.6 |
| 20260505110716 | 53 | 282 | 19.0 | 31.0 | 0.00 | 0.02 | 0.00 | 41 | 1003.5 |
| 20260505100716 | 55 | 292 | 17.0 | 27.0 | 0.00 | 0.09 | 0.00 | 41 | 1002.4 |
| 20260505094716 | 52 | 279 | 15.0 | 23.0 | 0.00 | 0.11 | 0.00 | 51 | 1002.2 |